TimePST,TemperatureF,Dew PointF,Humidity,Sea Level PressureIn,VisibilityMPH,Wind Direction,Wind SpeedMPH,Gust SpeedMPH,PrecipitationIn,Events,Conditions,WindDirDegrees,DateUTC
12:56 AM,57.0,37.0,47,29.85,10.0,North,8.1,-,N/A,,Clear,350,2013-03-08 08:56:00
1:56 AM,60.1,42.1,51,29.84,10.0,WNW,8.1,-,0.00,Rain,Light Rain,300,2013-03-08 09:56:00
2:18 AM,59.0,42.8,55,29.79,10.0,WSW,16.1,24.2,0.00,Rain,Light Rain,250,2013-03-08 10:18:00
2:56 AM,54.0,46.9,77,29.85,10.0,WSW,18.4,-,0.00,Rain,Light Rain,250,2013-03-08 10:56:00
3:56 AM,53.1,46.0,77,29.83,10.0,WSW,8.1,-,0.02,,Mostly Cloudy,250,2013-03-08 11:56:00
4:56 AM,51.1,45.0,80,29.82,10.0,NW,3.5,-,N/A,,Clear,310,2013-03-08 12:56:00
5:56 AM,48.9,44.1,83,29.83,10.0,West,10.4,-,N/A,,Scattered Clouds,270,2013-03-08 13:56:00
6:56 AM,54.0,44.1,69,29.85,10.0,WSW,16.1,27.6,0.00,Rain,Light Rain,250,2013-03-08 14:56:00
7:08 AM,53.6,44.6,72,29.82,10.0,SW,17.3,25.3,0.00,,Mostly Cloudy,230,2013-03-08 15:08:00
7:37 AM,55.4,42.8,63,29.85,10.0,WSW,20.7,25.3,0.00,Rain,Light Rain,240,2013-03-08 15:37:00
7:56 AM,53.1,44.1,71,29.90,10.0,WSW,6.9,-,0.00,Rain,Light Rain,250,2013-03-08 15:56:00
8:06 AM,53.6,44.6,72,29.85,10.0,SW,9.2,-,0.00,,Overcast,220,2013-03-08 16:06:00
8:56 AM,55.9,37.9,51,29.90,10.0,SW,15.0,-,0.00,,Mostly Cloudy,220,2013-03-08 16:56:00
9:56 AM,61.0,36.0,39,29.91,10.0,WSW,15.0,-,N/A,,Scattered Clouds,250,2013-03-08 17:56:00
10:56 AM,63.0,34.0,34,29.90,10.0,WSW,21.9,28.8,N/A,,Scattered Clouds,250,2013-03-08 18:56:00
11:56 AM,64.0,32.0,30,29.90,10.0,West,23.0,32.2,N/A,,Scattered Clouds,260,2013-03-08 19:56:00
12:56 PM,63.0,34.0,34,29.87,10.0,West,33.4,42.6,N/A,,Mostly Cloudy,260,2013-03-08 20:56:00
1:56 PM,59.0,34.0,39,29.88,10.0,West,23.0,-,N/A,,Mostly Cloudy,260,2013-03-08 21:56:00
2:56 PM,60.1,34.0,38,29.88,10.0,West,24.2,32.2,N/A,,Mostly Cloudy,260,2013-03-08 22:56:00
3:56 PM,57.9,35.1,42,29.90,10.0,West,20.7,31.1,N/A,,Mostly Cloudy,260,2013-03-08 23:56:00
4:56 PM,57.9,35.1,42,29.90,10.0,WSW,24.2,29.9,N/A,,Mostly Cloudy,240,2013-03-09 00:56:00
5:56 PM,54.0,36.0,51,29.93,10.0,WSW,19.6,29.9,N/A,,Scattered Clouds,240,2013-03-09 01:56:00
6:56 PM,54.0,35.1,49,29.96,10.0,WSW,19.6,27.6,N/A,,Clear,250,2013-03-09 02:56:00
7:56 PM,54.0,35.1,49,29.99,10.0,WSW,19.6,-,N/A,,Clear,250,2013-03-09 03:56:00
8:56 PM,53.1,35.1,50,30.02,10.0,WSW,16.1,-,N/A,,Clear,240,2013-03-09 04:56:00
9:56 PM,54.0,32.0,43,30.03,10.0,West,28.8,36.8,N/A,,Clear,260,2013-03-09 05:56:00
10:56 PM,54.0,34.0,47,30.02,10.0,West,25.3,-,N/A,,Clear,260,2013-03-09 06:56:00
11:56 PM,53.1,36.0,52,30.02,10.0,WSW,23.0,-,N/A,,Clear,250,2013-03-09 07:56:00